Hourly Data Report for January 15, 2022

ST. JOHN'S INTL A
NEWFOUNDLAND
Current Station Operator: NAVCAN

47°37'07.000" N
52°45'09.000" W
140.50 m
8403505
71801
YYT

Download Data

Hourly Data (January 2022)
Hourly Data Report for January 15, 2022
TIME
LST
Temp Definition
°C
Dew Point Definition
°C
Rel Hum Definition
%
Precip. Amount Definition
mm

Wind Dir Definition
10's deg

Wind Spd Definition
km/h
Visibility Definition
km
Stn Press Definition
kPa
Hmdx Definition


Wind Chill Definition


Weather Definition


00:30 4.9 3.3 89   17 52 24.1 99.71     LegendNANA
01:30 4.5 2.9 90   17 48 24.1 99.57     LegendNANA
02:30 5.0 3.0 87   17 49 24.1 99.36     Cloudy
03:30 4.8 3.1 88   17 59 24.1 99.03     LegendNANA
04:30 4.7 3.4 91   17 65 24.1 98.70     Rain
05:30 4.7 4.0 95   17 56 16.1 98.65     Rain
06:30 5.5 5.1 97   18 61 12.9 98.48     Moderate Rain
07:30 5.7 5.4 98   17 58 4.8 98.27     Heavy Rain, Fog
08:30 6.1 5.8 98   18 49 4.0 98.21     Moderate Rain, Fog
09:30 6.5 6.1 98   18 48 4.0 98.02     Rain, Fog
10:30 6.8 6.5 98   19 58 2.4 97.84     Moderate Rain, Fog
11:30 6.7 6.5 98   18 63 4.0 97.55     Rain, Fog
12:30 6.8 6.6 98   18 68 1.6 97.22     Rain, Fog
13:30 6.6 6.4 99   18 66 0.8 96.94     Rain, Fog
14:30 6.6 6.4 99   18 69 0.4 96.64     Rain, Fog
15:30 7.0 6.8 99   19 58 0.4 96.59     Rain, Fog
16:30 6.3 6.2 99   18 54 0.4 96.41     Drizzle, Fog
17:30 6.0 5.9 99   18 56 0.4 96.18     Drizzle, Fog
18:30 6.8 6.7 99   19 61 2.4 95.97     Rain, Fog
19:30 4.7 3.8 94   22 45 24.1 96.05     Rain
20:30 2.2 0.9 91   23 47 24.1 96.12     Rain
21:30 -1.0 -2.8 88   25 58 24.1 96.33   -10 Snow Showers
22:30 -2.4 -5.2 81   25 68 24.1 96.59   -13 LegendNANA
23:30 -3.2 -6.5 78   25 67 24.1 96.73   -14 Cloudy

Notes on Data Quality.

Legend

  • E = Estimated
  • M = Missing
  • NA = Not Available*
  • [empty] = Indicates an unobserved value
Date modified: